Terug naar catalogus

DMSP 5D-2 F12

USA 106

ActiefWeerSSO
NORAD 23233·PAYLOAD·🇺🇸 United States

Gelanceerd Aug 29, 1994 vanaf Vandenberg Space Force Base

Loading…

Volgende Passages (komende 24 uur)

TLE

VersSource: Space-Track

Epoch: Sep 14, 2026, 22:34 UTC

1 23233U 94057A   26257.94034223  .00000024  00000-0  33668-4 0  9993
2 23233  98.6597 305.7603 0011283  21.5534 338.6113 14.16082497654673

Volg DMSP 5D-2 F12 in realtime met AllMySat

Download on the App Store